EW7644 Weather Reports


time (UTC)temp
F
wind
direction
speed
knots
gust
knots
rain 1hr
in
rain 24hr
in
rain mn
in
humidity
%
barometer
mb
20260506231505 84 213 5.2 8.7 0.00 0.00 0.00 7 1010.6
20260506230021 85 195 3.5 7.8 0.00 0.00 0.00 7 1010.7
20260506224513 82 327 3.5 9.6 0.00 0.00 0.00 8 1011.0
20260506223016 83 252 1.7 7.0 0.00 0.00 0.00 7 1011.2
20260506221524 82 326 1.7 8.7 0.00 0.00 0.00 8 1011.4
20260506220018 83 287 6.1 10.4 0.00 0.00 0.00 7 1011.5
20260506214511 82 153 3.5 8.7 0.00 0.00 0.00 8 1011.7
20260506213024 82 253 3.5 9.6 0.00 0.00 0.00 8 1012.2
20260506211521 82 195 3.5 7.8 0.00 0.00 0.00 8 1012.4
20260506210016 80 156 5.2 9.6 0.00 0.00 0.00 9 1012.4
20260506204508 79 299 4.3 7.8 0.00 0.00 0.00 10 1012.7
20260506203032 81 170 5.2 10.4 0.00 0.00 0.00 9 1012.8
20260506201513 78 80 1.7 5.2 0.00 0.00 0.00 11 1013.0
20260506200009 78 200 1.7 7.0 0.00 0.00 0.00 11 1013.2
20260506194524 77 288 3.5 7.8 0.00 0.00 0.00 11 1013.4
20260506193016 77 194 1.7 7.8 0.00 0.00 0.00 11 1013.6
20260506191511 77 178 1.7 7.0 0.00 0.00 0.00 11 1013.7
20260506190008 76 28 3.5 7.0 0.00 0.00 0.00 12 1013.8
20260506184526 75 205 1.7 7.8 0.00 0.00 0.00 13 1014.0
20260506183018 73 317 1.7 7.8 0.00 0.00 0.00 14 1014.3
20260506181512 71 240 1.7 8.7 0.00 0.00 0.00 15 1014.4
20260506180012 73 225 2.6 6.1 0.00 0.00 0.00 15 1014.4
20260506174523 72 261 2.6 6.1 0.00 0.00 0.00 16 1014.4
20260506173020 71 196 2.6 7.0 0.00 0.00 0.00 17 1014.4
20260506171514 70 178 4.3 8.7 0.00 0.00 0.00 17 1014.3
20260506170004 69 198 1.7 7.0 0.00 0.00 0.00 18 1014.2
20260506164520 68 219 2.6 7.8 0.00 0.00 0.00 19 1014.2
20260506163023 67 201 3.5 6.1 0.00 0.00 0.00 20 1014.3
20260506161514 66 186 5.2 8.7 0.00 0.00 0.00 21 1014.2
20260506160010 65 192 2.6 6.1 0.00 0.00 0.00 22 1014.2
20260506154522 64 146 0.9 3.5 0.00 0.00 0.00 23 1014.2
20260506153015 63 163 1.7 5.2 0.00 0.00 0.00 24 1014.0
20260506151509 62 193 0.9 3.5 0.00 0.00 0.00 26 1014.0
20260506150025 61 244 0.9 2.6 0.00 0.00 0.00 26 1013.9
20260506144522 60 338 0.9 1.7 0.00 0.00 0.00 27 1013.9
20260506143022 59 350 0.0 0.0 0.00 0.00 0.00 28 1013.7
20260506141523 57 350 0.0 1.7 0.00 0.00 0.00 30 1013.6
20260506140018 55 349 1.7 2.6 0.00 0.00 0.00 32 1013.5
20260506134513 52 306 0.9 1.7 0.00 0.00 0.00 36 1013.4
20260506133009 51 306 0.9 1.7 0.00 0.00 0.00 35 1013.2
20260506131507 50 306 1.7 2.6 0.00 0.00 0.00 35 1013.0
20260506130021 51 302 0.0 2.6 0.00 0.00 0.00 37 1012.8
20260506124514 50 301 0.9 2.6 0.00 0.00 0.00 37 1012.7
20260506123009 50 301 1.7 4.3 0.00 0.00 0.00 37 1012.5
20260506121521 49 136 1.7 2.6 0.00 0.00 0.00 36 1012.6
20260506120019 50 124 0.0 0.0 0.00 0.00 0.00 34 1012.4
20260506114513 50 141 0.0 0.0 0.00 0.00 0.00 34 1012.5
20260506113006 50 141 0.0 0.0 0.00 0.00 0.00 33 1012.5
20260506111523 50 141 0.0 0.0 0.00 0.00 0.00 33 1012.4
20260506110020 50 142 0.0 0.0 0.00 0.00 0.00 33 1012.3
20260506104509 50 165 0.0 0.0 0.00 0.00 0.00 33 1012.2
20260506103004 50 165 0.0 0.0 0.00 0.00 0.00 32 1012.0
20260506101533 51 165 0.0 0.0 0.00 0.00 0.00 32 1011.9
20260506100015 51 165 0.0 0.0 0.00 0.00 0.00 32 1011.8
20260506094520 52 165 0.0 0.0 0.00 0.00 0.00 32 1011.7
20260506093014 52 165 0.0 0.0 0.00 0.00 0.00 31 1011.5
20260506091522 53 165 0.0 0.0 0.00 0.00 0.00 30 1011.5
20260506090015 54 165 0.0 0.0 0.00 0.00 0.00 30 1011.5
20260506084510 54 165 0.0 1.7 0.00 0.00 0.00 30 1011.5
20260506083020 56 165 0.9 1.7 0.00 0.00 0.00 27 1011.4
20260506081516 57 165 0.9 2.6 0.00 0.00 0.00 27 1011.3
20260506073034 59 165 2.6 5.2 0.00 0.00 0.00 26 1011.2
20260506071515 59 150 3.5 7.0 0.00 0.00 0.00 25 1011.0
20260506061518 60 159 2.6 6.1 0.00 0.00 0.00 24 1010.7
20260506044535 62 137 2.6 4.3 0.00 0.00 0.00 18 1010.0
20260506043008 62 143 2.6 6.1 0.00 0.00 0.00 18 1009.9
20260506041520 62 135 2.6 6.1 0.00 0.00 0.00 18 1009.6
20260506040016 62 125 2.6 6.1 0.00 0.00 0.00 18 1009.4
20260506034537 62 163 3.5 7.0 0.00 0.00 0.00 17 1009.2
20260506033008 63 186 0.0 2.6 0.00 0.00 0.00 16 1009.0
20260506031503 64 186 0.9 2.6 0.00 0.00 0.00 15 1008.9
20260506030018 65 186 0.9 4.3 0.00 0.00 0.00 14 1008.6
20260506024513 66 193 2.6 6.1 0.00 0.00 0.00 14 1008.5
20260506023009 67 219 0.9 3.5 0.00 0.00 0.00 13 1008.3
20260506021523 67 211 1.7 7.0 0.00 0.00 0.00 13 1008.1
20260506020014 69 203 1.7 7.0 0.00 0.00 0.00 13 1007.8
20260506014517 70 253 1.7 7.8 0.00 0.00 0.00 12 1007.6
20260506013008 70 319 1.7 7.0 0.00 0.00 0.00 12 1007.6
20260506011521 71 218 2.6 7.8 0.00 0.00 0.00 12 1007.4
20260506010016 72 213 0.9 5.2 0.00 0.00 0.00 12 1007.3
20260506004525 72 218 3.5 7.8 0.00 0.00 0.00 12 1007.2
20260506003036 71 205 7.0 13.0 0.00 0.00 0.00 12 1007.1
20260506001511 70 229 1.7 6.1 0.00 0.00 0.00 13 1007.1
20260506000009 70 254 1.7 7.0 0.00 0.00 0.00 14 1007.0
20260505234533 71 219 4.3 9.6 0.00 0.00 0.00 12 1007.0
20260505233019 73 307 3.5 11.3 0.00 0.00 0.00 13 1007.0